Tracking 26180 objects as of 24-Sep-2022
HD Live streaming from Space Station
objects crossing your sky now

ICEYE-X16

Track ICEYE-X16 now!
10-day predictions


NORAD ID: 51008
Int'l Code: 2022-002AA
Perigee: 519.2 km
Apogee: 535.7 km
Inclination: 97.5 °
Period: 95.0 minutes
Semi major axis: 6898 km
RCS: Unknown
Launch date: January 13, 2022
Source: (FIN)
Launch site: AIR FORCE EASTERN TEST RANGE (AFETR)
aabbcc
Your satellite tracking list
Your tracking list is empty




NASA's NSSDC Master Catalog

Two Line Element Set (TLE):
1 51008U 22002AA  22267.51659872  .00007727  00000-0  41391-3 0  9996
2 51008  97.4783 332.9728 0011974  84.5711 275.6886 15.15226046 38416
Source of the keplerian elements: AFSPC